GW0725 Weather Reports


time (UTC)temp
C
wind
direction
speed
KPH
gust
KPH
rain 1hr
cm
rain 24hr
cm
rain mn
cm
humidity
%
barometer
mb
20260507171647 11 187 0.0 0.0 0.00 0.00 0.00 82 1016.4
20260507171137 11 186 0.0 0.0 0.00 0.00 0.00 81 1016.5
20260507170627 11 187 0.0 0.0 0.00 0.00 0.00 81 1016.4
20260507165057 11 186 0.0 0.0 0.00 0.00 0.00 81 1016.3
20260507164547 11 186 0.0 1.6 0.00 0.00 0.00 81 1016.1
20260507164037 11 185 0.0 1.6 0.00 0.00 0.00 81 1016.1
20260507161447 11 205 0.0 0.0 0.00 0.00 0.00 79 1016.1
20260507161100 11 206 0.0 1.6 0.00 0.00 0.00 79 1016.0
20260507160427 11 206 1.6 1.6 0.00 0.00 0.00 79 1016.0
20260507155920 11 196 1.6 1.6 0.00 0.00 0.00 79 1016.0
20260507155445 11 193 0.0 3.2 0.00 0.00 0.00 78 1016.1
20260507153837 11 185 0.0 0.0 0.00 0.00 0.00 78 1015.9
20260507152859 11 202 1.6 3.2 0.00 0.00 0.00 76 1015.6
20260507151757 11 176 1.6 1.6 0.00 0.00 0.00 74 1015.8
20260507151247 12 256 1.6 1.6 0.00 0.00 0.00 71 1015.6
20260507150737 12 254 1.6 1.6 0.00 0.00 0.00 71 1015.6
20260507150227 12 254 0.0 1.6 0.00 0.00 0.00 71 1015.5
20260507145717 12 254 0.0 1.6 0.00 0.00 0.00 72 1015.7
20260507145245 11 256 0.0 1.6 0.00 0.00 0.00 72 1015.4
20260507143641 12 172 1.6 1.6 0.00 0.00 0.00 72 1015.2
20260507143127 11 272 1.6 3.2 0.00 0.00 0.00 73 1015.5
20260507142107 11 242 0.0 1.6 0.00 0.00 0.00 74 1015.4
20260507141557 12 207 0.0 1.6 0.00 0.00 0.00 73 1015.3
20260507140540 11 226 0.0 0.0 0.00 0.00 0.00 74 1015.3
20260507140027 11 238 0.0 1.6 0.00 0.00 0.00 73 1015.1
20260507135048 11 209 1.6 1.6 0.00 0.00 0.00 74 1015.2
20260507134457 11 236 0.0 1.6 0.00 0.00 0.00 75 1015.1
20260507133437 11 253 1.6 3.2 0.00 0.00 0.00 75 1015.1
20260507132927 11 246 0.0 3.2 0.00 0.00 0.00 75 1015.2
20260507131907 11 187 0.0 1.6 0.00 0.00 0.00 74 1015.1
20260507130847 11 229 1.6 3.2 0.00 0.00 0.00 73 1015.4
20260507130337 11 184 1.6 4.8 0.00 0.00 0.00 74 1015.0
20260507125905 11 154 4.8 12.9 0.00 0.00 0.00 74 1015.0
20260507125317 11 231 0.0 1.6 0.00 0.00 0.00 75 1015.1
20260507124338 11 254 0.0 3.2 0.00 0.00 0.00 74 1015.0
20260507123315 11 246 0.0 1.6 0.00 0.00 0.00 74 1014.8
20260507122217 11 228 1.6 1.6 0.00 0.00 0.00 74 1014.9
20260507121748 11 228 1.6 1.6 0.00 0.00 0.00 74 1014.8
20260507121235 11 216 1.6 3.2 0.00 0.00 0.00 74 1015.1
20260507120646 11 189 1.6 4.8 0.00 0.00 0.00 75 1014.6
20260507120136 11 237 1.6 3.2 0.00 0.00 0.00 75 1014.7
20260507115627 11 215 1.6 3.2 0.00 0.00 0.00 73 1014.8
20260507114056 11 161 3.2 4.8 0.00 0.00 0.00 76 1014.9
20260507113546 10 301 3.2 3.2 0.00 0.00 0.00 76 1014.9
20260507112526 10 224 0.0 3.2 0.00 0.00 0.00 77 1014.7
20260507110015 10 243 3.2 4.8 0.00 0.00 0.00 78 1014.7
20260507104916 10 225 1.6 3.2 0.00 0.00 0.00 79 1014.7
20260507104444 10 217 1.6 3.2 0.00 0.00 0.00 80 1014.8
20260507102841 9 250 3.2 3.2 0.00 0.00 0.00 81 1014.7
20260507101819 9 250 0.0 3.2 0.00 0.00 0.00 81 1014.5
20260507101306 9 238 0.0 9.7 0.00 0.00 0.00 82 1014.5
20260507100246 8 238 0.0 3.2 0.00 0.00 0.00 84 1014.4
20260507095814 8 204 0.0 3.2 0.00 0.00 0.00 84 1014.4
20260507095226 8 236 3.2 3.2 0.00 0.00 0.00 85 1014.3
20260507094716 8 200 0.0 1.6 0.00 0.00 0.00 86 1014.4
20260507094206 8 169 1.6 1.6 0.00 0.00 0.00 86 1014.3
20260507093224 8 233 0.0 1.6 0.00 0.00 0.00 87 1014.1
20260507092636 8 234 0.0 1.6 0.00 0.00 0.00 87 1014.0
20260507091654 8 242 3.2 3.2 0.00 0.00 0.00 88 1013.9
20260507091106 8 224 0.0 1.6 0.00 0.00 0.00 89 1013.9
20260507084006 7 234 0.0 3.2 0.00 0.00 0.00 90 1013.5
20260507083456 8 241 0.0 3.2 0.00 0.00 0.00 89 1013.4
20260507082946 8 236 0.0 6.4 0.00 0.00 0.00 88 1013.3
20260507082436 8 235 1.6 3.2 0.00 0.00 0.00 87 1013.3
20260507082049 8 251 3.2 3.2 0.00 0.00 0.00 87 1013.1
20260507080906 8 243 0.0 3.2 0.00 0.00 0.00 85 1013.1
20260507075846 8 234 0.0 3.2 0.00 0.00 0.00 85 1013.0
20260507075417 8 240 1.6 4.8 0.00 0.00 0.00 85 1012.9
20260507072235 8 227 1.6 1.6 0.00 0.00 0.00 87 1013.0
20260507071216 8 228 0.0 4.8 0.00 0.00 0.00 87 1012.8
20260507070708 8 267 1.6 1.6 0.00 0.00 0.00 87 1012.6
20260507065645 7 244 1.6 3.2 0.00 0.00 0.00 87 1012.5
20260507064154 7 219 1.6 3.2 0.00 0.00 0.00 87 1012.5
20260507063644 7 185 3.2 4.8 0.00 0.00 0.00 87 1012.4
20260507062035 7 232 0.0 1.6 0.00 0.00 0.00 87 1012.0
20260507061604 7 232 1.6 1.6 0.00 0.00 0.00 88 1012.0
20260507060508 7 216 0.0 1.6 0.00 0.00 0.00 88 1012.2
20260507055955 7 242 1.6 1.6 0.00 0.00 0.00 88 1012.0
20260507055449 7 227 0.0 1.6 0.00 0.00 0.00 88 1012.0
20260507054935 7 238 1.6 1.6 0.00 0.00 0.00 89 1012.1
20260507054425 7 252 1.6 1.6 0.00 0.00 0.00 89 1011.9
20260507053408 7 220 0.0 1.6 0.00 0.00 0.00 90 1011.8
20260507051404 7 244 3.2 3.2 0.00 0.00 0.00 89 1011.3
20260507050853 7 220 0.0 0.0 0.00 0.00 0.00 89 1011.6
20260507045246 7 194 1.6 1.6 0.00 0.00 0.00 89 1011.6
20260507044735 7 245 3.2 4.8 0.00 0.00 0.00 89 1011.5
20260507043243 7 233 0.0 1.6 0.00 0.00 0.00 89 1011.4
20260507042223 7 227 0.0 1.6 0.00 0.00 0.00 89 1011.3
20260507040653 7 227 0.0 3.2 0.00 0.00 0.00 89 1011.3
20260507035558 7 250 1.6 4.8 0.00 0.00 0.00 90 1011.0
20260507035045 7 227 0.0 3.2 0.00 0.00 0.00 90 1010.7
20260507034538 7 197 0.0 1.6 0.00 0.00 0.00 91 1010.9
20260507031945 7 247 3.2 6.4 0.00 0.00 0.00 91 1010.6
20260507031003 7 241 1.6 1.6 0.00 0.00 0.00 91 1010.6
20260507024845 7 209 0.0 1.6 0.00 0.00 0.00 92 1010.6
20260507024335 7 218 0.0 1.6 0.00 0.00 0.00 92 1010.4
20260507023315 7 192 1.6 3.2 0.00 0.00 0.00 92 1010.5
20260507022805 7 226 3.2 3.2 0.00 0.00 0.00 92 1010.4
20260507021745 7 233 0.0 3.2 0.00 0.00 0.00 92 1010.4
20260507021235 7 230 1.6 3.2 0.00 0.00 0.00 92 1010.3
20260507020215 7 228 1.6 4.8 0.00 0.00 0.00 92 1010.5
20260507015705 7 226 0.0 1.6 0.00 0.00 0.00 92 1010.3
20260507015155 7 226 0.0 0.0 0.00 0.00 0.00 92 1010.6
20260507014645 7 233 0.0 1.6 0.00 0.00 0.00 92 1010.4
20260507014135 7 229 0.0 1.6 0.00 0.00 0.00 92 1010.2
20260507013153 7 231 0.0 0.0 0.00 0.00 0.00 92 1010.5
20260507012604 7 223 0.0 0.0 0.00 0.00 0.00 92 1010.3
20260507012054 7 241 1.6 6.4 0.00 0.00 0.00 92 1010.2
20260507011034 7 230 0.0 6.4 0.00 0.00 0.00 92 1010.0
20260507010015 7 243 1.6 3.2 0.00 0.00 0.00 92 1009.9
20260507005504 7 225 0.0 1.6 0.00 0.00 0.00 92 1010.1
20260507005033 7 240 0.0 1.6 0.00 0.00 0.00 92 1009.9
20260507003934 6 238 1.6 4.8 0.00 0.00 0.00 92 1009.8
20260507003424 6 305 1.6 3.2 0.00 0.00 0.00 92 1009.5
20260507002404 7 242 1.6 3.2 0.00 0.00 0.00 92 1009.8
20260507001344 7 224 0.0 1.6 0.00 0.00 0.00 92 1009.8
20260507000834 7 263 1.6 4.8 0.00 0.00 0.00 92 1009.7
20260506235306 7 223 1.6 1.6 0.00 0.00 0.00 91 1009.9
20260506234323 7 218 1.6 1.6 0.00 0.00 0.00 92 1009.8
20260506232204 7 242 1.6 3.2 0.00 0.00 0.00 92 1009.9
20260506231147 7 233 0.0 1.6 0.00 0.00 0.00 92 1009.8
20260506230124 7 294 6.4 6.4 0.00 0.00 0.00 93 1009.7
20260506225104 7 263 3.2 6.4 0.00 0.00 0.00 94 1009.5
20260506223534 8 234 1.6 3.2 0.00 0.00 0.00 93 1009.4
20260506223024 8 249 1.6 3.2 0.00 0.00 0.00 93 1009.4
20260506221532 8 310 3.2 4.8 0.00 0.00 0.00 92 1009.4
20260506215453 9 229 0.0 6.4 0.00 0.00 2.87 93 1009.3
20260506214945 9 241 0.0 3.2 0.00 0.00 2.87 93 1009.1
20260506214355 9 237 1.6 6.4 0.00 0.00 2.87 93 1009.1
20260506213844 9 214 0.0 3.2 0.00 0.00 2.87 94 1009.1
20260506212314 9 213 0.0 1.6 0.00 0.00 2.87 95 1008.8
20260506210234 10 272 1.6 4.8 0.00 0.00 2.87 94 1008.8
20260506205214 9 236 1.6 4.8 0.00 0.00 2.87 94 1008.6
20260506204707 10 243 1.6 3.2 0.00 0.00 2.87 95 1008.5
20260506204232 10 213 0.0 1.6 0.00 0.00 2.87 95 1008.8
20260506203134 10 240 1.6 3.2 0.00 0.00 2.87 95 1008.7
20260506202114 10 214 1.6 3.2 0.00 0.00 2.87 94 1008.8
20260506201642 10 238 0.0 3.2 0.00 0.00 2.87 94 1008.7
20260506201217 10 244 0.0 1.6 0.00 0.00 2.87 94 1008.6
20260506200034 10 237 0.0 3.2 0.00 0.00 2.87 95 1008.6
20260506193954 10 234 0.0 1.6 0.00 0.00 2.87 95 1008.5
20260506193522 10 231 0.0 0.0 0.00 0.00 2.87 95 1008.4
20260506191404 10 229 0.0 0.0 0.00 0.00 2.87 95 1008.3
20260506190932 10 228 0.0 0.0 0.00 0.00 2.87 95 1008.4
20260506190344 10 250 1.6 1.6 0.00 0.00 2.87 95 1008.3
20260506185837 10 245 0.0 1.6 0.00 0.00 2.87 95 1008.0
20260506185324 10 230 0.0 1.6 0.00 0.00 2.87 95 1007.5
20260506184304 10 235 0.0 1.6 0.00 0.00 2.87 95 1007.8
20260506183244 10 236 1.6 1.6 0.00 0.00 2.87 94 1007.7
20260506182733 10 206 0.0 3.2 0.00 0.00 2.87 94 1007.8
20260506182306 10 247 1.6 1.6 0.00 0.00 2.87 94 1007.8
20260506181326 10 238 0.0 1.6 0.00 0.00 2.87 94 1007.6
20260506180653 10 273 1.6 4.8 0.00 0.00 2.87 93 1007.7
20260506175123 10 220 0.0 1.6 0.00 0.00 2.87 93 1007.5
20260506174614 11 252 1.6 9.7 0.00 0.00 2.87 93 1007.2
20260506173553 11 247 1.6 4.8 0.00 0.00 2.87 94 1007.4
20260506173043 11 259 1.6 3.2 0.00 0.00 2.87 94 1007.4
20260506172533 11 199 1.6 3.2 0.00 0.00 2.87 94 1007.6